SCP
0 0 0 0 0 0 0 0 0 0 0 0 0 0 0 0 0 0 0 0 0 0 0 0 0 -0 -0 -0 0 -0 -0 -0 -0 -0 -0 -0 -0 -0 -0 -0 -0 -0 -0 -0 -0 -0 -0 -0 -0
-0 -0 0 0 0 0 0 0 0 0 0 0 0 0 0 0 0 0 0 0 0 0 0 0 0 -0 -0 -0 -0 -0 -0 -0 -0 -0 -0 -0 -0 -0 -0 -0 -0 -0 -0 -0 -0 -0 -0 0 0
-0 -0 0 0 0 0 0 0 0 0 0 0 0 0 0 0 0 0 0 0 0 0 0 0 0 0 -0 -0 0 -0 -0 -0 -0 -0 -0 -0 -0 -0 -0 -0 -0 0 0 0 0 0 0 0 0
0 0 0 0 0 0 0 0 0 0 0 0 0 0 0 0 0 0 0 0 0 0 0 0 0 0 0 0 0 -0 -0 -0 -0 -0 -0 -0 -0 -0 -0 -0 0 0 0 0 0 0 0 0 0
0 0 0 0 0 0 0 0 0 0 0 0 0 0 0 0 0 0 0 0 0 0 0 0 0 0 0 -0 -0 -0 -0 -0 -0 -0 -0 -0 -0 -0 -0 -0 0 0 0 0 0 0 0 0 0
0 0 0 0 0 0 0 0 0 0 0 0 0 0 0 0 0 0 0 0 0 0 0 0 0 0 0 -0 -0 -0 -0 -0 -0 -0 -0 -0 -0 -0 -0 -0 -0 0 0 0 0 0 0 0 0
0 0 0 0 0 0 0 0 0 0 0 0 0 0 0 0 0 0 0 0 0 0 0 0 0 0 0 0 -0 -0 -0 -0 -0 -0 -0 -0 -0 -0 -0 -0 -0 0 0 0 0 0 0 0 0
0 0 0 0 0 0 0 0 0 0 0 0 0 0 0 0 0 0 0 0 0 0 0 0 0 0 0 0 0 -0 -0 -0 -0 -0 -0 -0 -0 -0 -0 0 -0 -0 -0 -0 0 0 0 0 0
0 0 0 0 0 0 0 0 0 0 0 0 0 0 0 0 0 0 0 0 0 0 0 0 0 0 0 0 0 0 -0 0 -0 -0 -0 -0 0 0 0 0 0 -0 -0 0 0 0 0 0 0
0 0 0 0 0 0 0 0 0 0 0 0 0 0 0 0 0 0 0 0 0 0 0 0 0 0 0 0 0 0 0 0 0 -0 -0 0 0 0 0 0 0 0 0 0 0 0 0 -0 0
0 0 0 0 0 0 0 0 0 0 0 0 0 0 0 0 0 0 0 0 0 0 0 0 0 0 0 0 0 0 0 0 0 -0 -0 -0 0 0 0 0 0 0 -0 0 -0 0 -0 -0 0
0 0 0 0 0 0 0 0 0 0 0 0 0 0 0 0 0 0 0 0 0 0 0 0 0 0 0 0 0 0 0 0 0 0 0 -0 0 0 0 0 0 -0 -0 -0 -0 0 0 0 0
0 0 0 0 0 0 0 0 0 0 0 0 0 0 0 0 0 0 0 0 0 0 0 0 0 0 0 0 0 0 0 0 0 0 0 0 0 0 0 0 0 -0 -0 0 0 0 0 0 0
0 0 0 0 0 0 0 0 0 0 0 0 0 0 0 0 0 0 0 0 0 0 0 0 0 0 0 0 0 0 0 0 0 0 0 0 0 0 0 0 0 0 0 0 0 0 0 0 0
0 0 0 0 0 0 0 0 0 0 0 0 0 0 0 0 0 0 0 0 0 0 0 0 0 0 0 0 0 0 0 0 0 0 0 0 0 0 0 0 -0 0 0 0 0 0 0 0 0
0 0 0 0 0 0 0 -0 0 0 0 0 0 0 0 0 0 0 0 0 0 0 0 0 0 0 0 0 0 0 0 0 0 0 0 0 0 0 0 0 0 0 0 0 0 0 0 0 0
0 0 0 0 0 0 0 0 0 0 0 0 0 0 0 0 0 0 0 0 0 0 0 0 0 0 0 0 0 0 0 0 0 0 0 0 0 0 0 0 0 0 0 0 0 0 0 0 0
0 0 0 0 0 0 0 0 0 0 0 0 0 0 0 0 0 0 0 0 0 0 0 0 0 0 0 0 0 0 0 0 0 0 0 0 0 0 0 0 0 0 0 0 0 0 0 0 0
0 0 0 0 0 0 0 0 0 0 0 0 0 0 0 0 0 0 0 0 0 0 0 0 0 0 0 0 0 0 0 0 0 0 0 0 0 0 0 0 0 0 0 0 0 0 0 0 0
0 0 0 0 0 0 0 0 0 0 0 0 0 0 0 0 0 0 0 0 0 0 0 0 0 0 0 0 0 0 0 0 0 0 0 0 0 0 0 0 0 0 0 0 0 0 0 0 0
0 0 0 0 0 0 0 0 0 0 0 0 0 0 0 0 0 0 0 0 0 0 0 0 0 0 0 0 0 0 0 0 0 0 0 0 0 0 0 0 0 0 0 0 0 0 0 0 0
0 0 0 0 0 0 0 -0 0 0 0 0 0 0 0 0 0 0 0 0 0 0 0 0 0 0 0 0 0 0 0 0 0 0 0 0 0 0 0 0 0 0 0 0 0 0 0 0 0
0 0 0 0 0 0 0 0 -0 -0 0 0 0 0 0 0 0 0 0 0 0 0 0 0 0 0 0 0 0 0 0 0 0 0 0 0 0 0 0 0 0 0 0 0 0 0 0 0 0
0 0 0 0 0 0 0 0 -0 0 0 0 0 0 0 0 0 0 0 0 0 0 0 0 0 0 0 0 0 0 0 0 0 0 0 0 0 0 0 0 0 0 0 0 0 0 0 0 0
0 0 0 0 0 0 0 0 0 0 0 0 0 0 0 0 0 0 0 0 0 0 0 0 0 0 0 0 0 0 0 0 0 0 0 0 0 0 0 0 0 0 0 0 0 0 0 0 0
0 0 0 0 0 0 0 0 0 -0 -0 -0 0 0 0 0 0 0 0 0 0 0 0 0 0 0 0 0 0 0 0 0 0 0 0 0 0 0 0 0 0 0 0 0 0 0 0 0 0
0 0 0 0 0 0 0 0 0 0 0 0 0 0 0 0 0 0 0 0 0 0 0 0 0 0 0 0 0 0 0 0 0 0 0 0 0 0 0 0 0 0 0 0 0 0 0 0 0
0 0 0 0 0 0 0 0 0 -0 -0 0 0 0 0 0 0 0 0 0 0 0 0 0 0 0 0 0 0 0 0 0 0 0 0 0 0 0 0 0 0 0 0 0 0 0 0 0 0
0 0 0 0 0 0 0 0 0 -0 0 0 0 0 0 0 0 0 0 0 0 0 0 0 0 0 0 0 0 0 0 0 0 0 0 0 0 0 0 0 0 0 0 0 0 0 0 0 0
0 0 0 0 0 0 0 0 0 -0 0 0 0 0 0 0 0 0 0 0 0 0 0 0 0 0 0 0 0 0 0 0 0 0 0 0 0 0 0 0 0 0 0 0 0 0 0 0 0
Wind_Speed_500mb
16 19 22 3 5 5 6 10 4 10 4 3 7 8 14 8 9 7 21 41 53 65 55 47 40 36 26 17 16 27 23 26 25 25 31 28 26 28 27 28 28 26 24 27 28 26 27 27 26
22 20 9 3 8 4 8 6 9 12 5 14 13 13 4 4 9 13 43 42 58 62 54 45 44 36 26 15 17 25 24 27 23 28 31 27 26 27 27 27 28 24 30 28 24 26 25 28 28
18 17 6 6 5 10 9 8 10 8 15 4 5 3 7 5 13 30 30 45 62 62 53 49 46 38 25 16 14 26 28 25 27 26 28 27 26 26 26 26 28 28 25 23 23 25 27 23 24
8 4 7 6 10 10 10 9 6 6 13 8 7 4 6 12 16 33 42 51 62 63 55 48 44 37 28 17 11 15 30 29 25 27 29 27 25 26 25 25 26 24 23 23 22 22 29 27 22
6 3 2 2 8 9 11 12 13 11 6 12 16 6 4 13 20 39 47 51 60 64 55 47 43 40 31 23 13 10 28 30 29 28 29 25 27 26 25 24 24 23 22 22 20 22 27 25 22
1 5 3 7 10 10 13 16 5 11 13 6 10 13 7 17 22 37 47 47 53 61 56 47 43 39 34 27 18 13 19 30 27 27 29 30 25 24 23 23 22 21 21 21 25 21 26 26 23
9 7 8 7 7 11 10 9 9 16 8 10 7 11 7 27 28 35 44 45 48 56 53 49 47 44 35 28 20 18 19 30 31 30 27 28 27 24 23 21 21 20 20 20 20 22 23 23 23
7 8 5 8 8 13 12 7 14 22 17 13 16 10 9 34 37 42 47 45 46 57 56 55 53 46 40 33 27 23 21 30 30 30 28 29 28 25 23 22 20 18 17 17 17 18 19 19 18
11 3 8 10 13 10 11 4 4 6 11 19 24 17 12 21 44 50 52 50 50 58 61 60 58 54 38 35 29 28 27 27 34 35 33 30 27 22 21 21 19 17 16 14 14 14 14 14 14
12 8 16 13 11 9 5 4 14 5 7 15 23 28 22 26 52 58 64 64 63 67 64 63 63 43 45 40 37 32 29 30 37 35 34 32 29 25 22 21 19 16 14 12 11 9 8 8 8
13 18 12 12 28 14 7 20 11 8 9 29 37 41 33 40 56 60 62 67 70 71 67 68 63 59 50 47 45 38 32 30 40 36 35 34 33 29 25 21 17 15 12 10 7 5 3 2 2
7 23 22 17 38 20 10 13 9 23 40 29 45 31 40 50 58 62 65 69 72 76 75 69 68 62 54 53 49 37 36 34 37 33 28 35 34 31 28 24 21 18 16 13 10 8 7 5 5
7 12 15 39 37 37 33 27 26 31 46 42 28 31 43 53 58 61 62 62 68 75 78 79 73 68 61 56 52 38 35 33 31 32 32 33 34 31 29 26 23 20 18 17 15 13 13 13 13
9 11 26 31 39 19 9 21 13 34 40 37 40 41 43 52 62 63 67 68 72 74 76 78 78 70 69 63 59 46 33 32 35 35 33 36 35 33 31 29 26 23 22 21 21 20 20 20 20
16 12 12 8 14 12 23 23 22 52 44 34 38 45 47 53 63 68 67 71 69 74 72 77 77 75 75 69 65 55 45 38 37 38 38 39 40 36 35 32 28 27 27 26 26 26 26 26 27
5 4 7 7 15 17 25 37 23 54 51 60 55 51 55 59 65 68 68 69 68 71 76 74 72 72 79 77 71 64 56 48 42 41 44 41 44 39 38 36 32 31 30 30 29 30 31 31 32
8 7 12 13 23 10 18 15 11 45 41 52 60 64 64 62 68 70 72 70 71 72 72 76 72 69 72 78 74 70 62 56 50 44 47 46 46 45 42 37 35 36 34 33 32 34 35 34 36
18 13 9 11 3 10 11 24 17 13 32 58 63 58 65 69 74 71 74 73 71 69 71 74 71 70 70 72 75 72 67 63 58 52 48 49 45 47 45 43 40 40 38 37 35 35 36 38 39
7 7 9 4 9 8 15 23 31 30 33 38 49 55 66 73 75 69 71 73 73 71 75 79 79 77 73 77 77 75 76 73 68 61 52 50 44 43 44 43 43 43 41 37 38 38 38 39 39
12 13 15 9 11 11 15 23 26 18 19 50 62 68 66 70 73 71 68 72 77 76 77 80 81 80 77 77 78 78 75 76 70 63 59 56 49 45 42 42 43 44 44 42 40 39 38 39 37
22 32 10 11 7 8 8 17 19 13 33 54 69 77 83 84 76 72 76 76 77 81 81 80 81 84 80 77 77 77 73 74 70 70 70 67 57 52 47 42 41 43 45 43 41 40 40 40 40
26 15 16 15 4 14 6 17 19 9 19 19 51 63 83 81 83 73 72 82 79 80 79 80 80 83 82 81 81 83 82 79 74 70 66 63 60 57 52 48 45 44 44 44 41 40 40 43 40
20 18 24 19 9 6 19 8 13 9 18 28 22 59 80 79 81 78 73 76 79 79 79 81 82 83 82 83 81 82 80 76 72 68 63 63 61 59 55 52 49 46 45 43 42 41 40 40 42
9 6 6 6 8 7 22 20 28 21 18 15 15 53 72 79 75 82 84 78 80 81 79 78 79 82 83 84 84 82 80 77 74 74 66 62 60 58 55 54 51 46 45 44 42 40 41 40 43
13 14 5 2 4 20 8 18 37 10 10 15 20 51 57 65 72 78 82 88 89 88 83 79 82 87 85 82 84 81 79 76 70 70 64 60 56 54 53 53 49 45 42 40 39 41 41 41 43
36 20 9 15 10 7 8 16 13 20 27 52 61 64 58 46 48 50 64 79 89 91 88 84 86 82 78 77 82 80 74 71 69 65 61 57 54 47 43 40 42 42 40 39 40 41 40 40 42
11 26 26 5 4 3 11 13 16 19 20 19 37 44 57 65 47 41 41 56 70 79 85 83 81 80 76 73 75 74 72 72 67 60 55 54 49 47 46 43 41 40 40 40 40 40 38 40 40
20 17 11 9 10 11 10 8 15 4 19 22 18 23 39 39 43 44 38 43 52 62 72 76 76 75 69 70 71 71 69 64 60 55 54 52 47 47 49 47 45 43 41 41 41 40 39 41 42
11 13 12 10 9 11 9 14 15 24 12 13 18 29 33 33 31 27 23 27 43 49 60 66 66 69 69 66 66 67 66 63 58 53 49 48 47 48 48 46 48 46 44 43 44 43 42 44 43
26 21 25 16 30 13 2 17 9 14 12 11 20 28 16 25 27 25 23 22 25 41 51 56 61 64 64 63 63 63 61 60 57 55 50 48 48 48 47 46 47 47 46 45 46 44 43 44 44
Wind_Direction_500mb
282 310 313 345 59 80 215 260 260 302 279 296 144 148 182 123 165 200 158 163 162 162 166 165 166 179 182 165 133 135 154 130 143 135 121 119 117 111 110 106 105 109 119 100 100 94 102 106 103
301 313 338 73 106 148 254 242 248 247 306 119 112 112 103 160 157 157 153 163 166 166 166 167 171 181 186 173 136 156 146 146 144 134 130 123 120 115 112 108 105 105 103 105 108 105 95 100 100
299 322 355 92 133 182 225 214 240 280 192 163 142 147 163 189 178 165 164 165 168 169 169 168 174 179 179 173 138 138 153 146 145 145 129 126 124 123 120 117 112 115 111 112 117 106 105 100 103
318 338 61 101 234 254 209 231 240 139 206 222 187 153 186 177 171 173 168 168 170 173 174 177 183 189 182 159 167 163 152 149 150 154 140 133 127 125 118 119 119 116 122 112 117 108 103 110 100
331 66 54 233 254 263 251 255 218 208 236 182 177 206 215 203 180 177 176 173 173 176 179 182 188 195 202 192 197 182 152 163 161 155 140 141 139 135 128 125 125 124 122 116 117 103 104 109 106
50 79 77 239 243 269 281 270 234 217 239 202 181 156 204 196 178 177 177 178 177 180 182 185 188 196 191 196 207 205 170 171 161 163 148 151 142 138 138 133 129 124 119 113 112 105 97 97 98
132 93 224 231 255 289 261 266 213 214 202 239 232 155 221 200 179 184 180 181 180 185 186 180 187 191 193 200 216 216 201 173 168 167 157 158 158 154 148 137 128 122 114 107 102 94 91 89 89
179 110 213 235 198 266 247 247 265 205 219 220 195 205 231 208 180 173 179 182 185 188 190 184 190 196 198 201 208 222 215 180 170 172 171 166 164 162 154 143 134 127 118 112 104 95 89 84 84
175 96 227 225 172 240 270 260 264 235 191 191 198 221 229 199 185 179 184 188 189 190 192 189 192 195 201 205 208 211 215 195 181 182 183 175 169 164 157 153 148 143 135 126 116 102 94 91 85
166 172 223 206 201 221 281 282 308 242 218 226 222 219 227 197 194 192 193 192 190 189 191 193 197 199 202 204 204 207 211 202 188 188 189 177 172 176 177 170 165 161 156 151 136 121 112 100 91
186 228 181 229 229 226 251 306 283 222 249 238 231 218 213 199 198 203 204 202 194 192 190 201 205 203 202 204 208 221 214 216 193 201 190 181 181 182 184 182 179 181 182 177 171 176 153 127 109
208 243 202 242 246 257 249 283 268 233 250 274 253 238 218 206 208 212 212 208 201 197 196 197 201 206 206 208 222 220 217 214 212 213 200 191 190 190 192 194 194 197 201 207 215 229 239 254 264
224 246 222 244 249 250 258 263 255 258 270 262 254 227 225 221 219 218 218 215 209 204 203 201 207 210 210 212 225 224 214 216 212 216 211 203 200 200 202 205 208 212 217 224 234 245 253 260 269
226 251 257 260 260 255 236 261 243 259 273 261 243 237 227 230 224 220 219 219 212 210 210 209 207 211 212 215 224 225 221 221 223 223 221 213 209 208 211 215 218 222 228 236 246 252 258 264 271
274 297 297 225 255 239 230 260 227 258 260 263 246 237 232 231 226 229 229 223 218 215 214 213 215 211 214 217 223 229 233 233 233 232 229 219 217 221 219 221 226 229 235 244 253 260 265 270 276
280 130 271 231 189 237 179 254 243 249 252 257 259 247 239 232 235 231 232 230 224 221 218 217 218 220 214 217 221 232 236 237 238 235 236 230 223 225 227 231 233 234 240 248 256 262 267 272 278
345 242 210 290 207 182 194 266 259 242 230 248 254 250 242 238 236 236 233 233 230 225 221 220 220 220 218 219 222 230 237 238 238 238 239 237 228 231 236 237 236 239 245 252 258 264 271 276 281
211 220 237 205 240 222 229 264 272 266 230 242 251 254 247 242 245 240 235 231 232 229 227 225 224 222 220 222 226 230 233 237 238 238 239 236 236 235 239 240 240 243 248 253 261 268 273 278 284
190 220 219 238 259 218 239 250 260 247 235 256 252 251 249 248 250 245 240 235 231 231 228 225 224 225 221 222 224 225 225 229 232 235 235 232 234 238 241 243 245 247 251 256 260 266 273 281 289
234 230 249 275 258 190 273 261 260 234 230 239 245 249 252 253 252 246 242 235 232 232 230 226 227 228 226 227 226 229 227 229 231 233 233 231 235 238 245 246 249 251 254 256 261 267 273 280 286
232 234 213 225 326 264 311 275 256 246 237 247 246 248 252 251 256 251 240 237 232 231 232 230 229 228 228 228 227 229 232 235 232 231 228 230 233 238 244 248 250 251 255 258 261 264 271 277 281
243 189 221 226 209 251 127 279 252 247 250 228 243 235 244 246 250 252 245 237 233 234 234 232 231 229 227 227 226 227 229 230 231 234 231 231 234 239 244 249 251 251 254 256 260 261 266 272 277
241 180 198 209 206 358 247 280 264 211 243 246 239 236 243 244 243 244 246 239 237 237 236 232 230 230 227 227 227 228 230 234 238 239 237 237 239 242 245 247 250 250 252 257 258 260 265 270 273
173 104 89 92 120 247 234 199 255 236 225 251 245 248 247 242 241 245 246 244 241 239 238 236 232 231 227 226 226 229 230 232 233 237 237 239 241 243 243 244 248 251 250 252 257 261 263 267 271
164 158 183 177 185 237 184 187 244 252 252 230 244 255 254 249 247 248 247 243 241 240 238 234 230 228 227 225 227 230 231 234 235 238 240 241 241 241 242 244 247 251 252 254 255 258 262 266 269
194 189 178 193 202 235 118 225 249 230 251 248 247 253 259 260 251 252 252 248 244 240 236 233 231 228 227 225 227 229 231 234 235 237 239 241 240 239 241 245 246 246 247 247 250 254 259 264 268
206 208 218 76 20 122 217 280 293 250 266 259 249 250 256 257 252 258 266 248 243 238 232 232 231 229 226 224 226 228 231 233 233 234 237 239 238 235 237 241 243 243 244 245 250 254 259 265 267
180 156 182 210 180 224 252 243 232 303 258 268 275 242 258 257 249 255 257 245 239 238 232 229 230 230 229 224 225 227 229 232 234 233 233 235 234 233 235 238 241 243 246 247 251 257 261 266 269
183 185 211 178 166 212 258 254 215 224 246 279 278 281 259 247 240 238 244 242 230 229 229 228 229 230 228 227 226 226 226 228 231 231 231 231 230 231 235 236 239 242 245 248 252 257 263 268 270
220 198 198 206 223 235 198 251 205 227 249 263 275 283 272 235 230 227 230 230 226 225 226 227 227 227 228 227 225 224 223 225 227 228 227 227 228 229 232 235 239 242 245 249 254 259 263 265 267
Wind_Speed_850mb
16 19 22 3 5 5 6 10 4 10 4 3 7 8 14 8 9 7 21 41 53 65 55 47 40 36 26 17 16 27 23 26 25 25 31 28 26 28 27 28 28 26 24 27 28 26 27 27 26
22 20 9 3 8 4 8 6 9 12 5 14 13 13 4 4 9 13 43 42 58 62 54 45 44 36 26 15 17 25 24 27 23 28 31 27 26 27 27 27 28 24 30 28 24 26 25 28 28
18 17 6 6 5 10 9 8 10 8 15 4 5 3 7 5 13 30 30 45 62 62 53 49 46 38 25 16 14 26 28 25 27 26 28 27 26 26 26 26 28 28 25 23 23 25 27 23 24
8 4 7 6 10 10 10 9 6 6 13 8 7 4 6 12 16 33 42 51 62 63 55 48 44 37 28 17 11 15 30 29 25 27 29 27 25 26 25 25 26 24 23 23 22 22 29 27 22
6 3 2 2 8 9 11 12 13 11 6 12 16 6 4 13 20 39 47 51 60 64 55 47 43 40 31 23 13 10 28 30 29 28 29 25 27 26 25 24 24 23 22 22 20 22 27 25 22
1 5 3 7 10 10 13 16 5 11 13 6 10 13 7 17 22 37 47 47 53 61 56 47 43 39 34 27 18 13 19 30 27 27 29 30 25 24 23 23 22 21 21 21 25 21 26 26 23
9 7 8 7 7 11 10 9 9 16 8 10 7 11 7 27 28 35 44 45 48 56 53 49 47 44 35 28 20 18 19 30 31 30 27 28 27 24 23 21 21 20 20 20 20 22 23 23 23
7 8 5 8 8 13 12 7 14 22 17 13 16 10 9 34 37 42 47 45 46 57 56 55 53 46 40 33 27 23 21 30 30 30 28 29 28 25 23 22 20 18 17 17 17 18 19 19 18
11 3 8 10 13 10 11 4 4 6 11 19 24 17 12 21 44 50 52 50 50 58 61 60 58 54 38 35 29 28 27 27 34 35 33 30 27 22 21 21 19 17 16 14 14 14 14 14 14
12 8 16 13 11 9 5 4 14 5 7 15 23 28 22 26 52 58 64 64 63 67 64 63 63 43 45 40 37 32 29 30 37 35 34 32 29 25 22 21 19 16 14 12 11 9 8 8 8
13 18 12 12 28 14 7 20 11 8 9 29 37 41 33 40 56 60 62 67 70 71 67 68 63 59 50 47 45 38 32 30 40 36 35 34 33 29 25 21 17 15 12 10 7 5 3 2 2
7 23 22 17 38 20 10 13 9 23 40 29 45 31 40 50 58 62 65 69 72 76 75 69 68 62 54 53 49 37 36 34 37 33 28 35 34 31 28 24 21 18 16 13 10 8 7 5 5
7 12 15 39 37 37 33 27 26 31 46 42 28 31 43 53 58 61 62 62 68 75 78 79 73 68 61 56 52 38 35 33 31 32 32 33 34 31 29 26 23 20 18 17 15 13 13 13 13
9 11 26 31 39 19 9 21 13 34 40 37 40 41 43 52 62 63 67 68 72 74 76 78 78 70 69 63 59 46 33 32 35 35 33 36 35 33 31 29 26 23 22 21 21 20 20 20 20
16 12 12 8 14 12 23 23 22 52 44 34 38 45 47 53 63 68 67 71 69 74 72 77 77 75 75 69 65 55 45 38 37 38 38 39 40 36 35 32 28 27 27 26 26 26 26 26 27
5 4 7 7 15 17 25 37 23 54 51 60 55 51 55 59 65 68 68 69 68 71 76 74 72 72 79 77 71 64 56 48 42 41 44 41 44 39 38 36 32 31 30 30 29 30 31 31 32
8 7 12 13 23 10 18 15 11 45 41 52 60 64 64 62 68 70 72 70 71 72 72 76 72 69 72 78 74 70 62 56 50 44 47 46 46 45 42 37 35 36 34 33 32 34 35 34 36
18 13 9 11 3 10 11 24 17 13 32 58 63 58 65 69 74 71 74 73 71 69 71 74 71 70 70 72 75 72 67 63 58 52 48 49 45 47 45 43 40 40 38 37 35 35 36 38 39
7 7 9 4 9 8 15 23 31 30 33 38 49 55 66 73 75 69 71 73 73 71 75 79 79 77 73 77 77 75 76 73 68 61 52 50 44 43 44 43 43 43 41 37 38 38 38 39 39
12 13 15 9 11 11 15 23 26 18 19 50 62 68 66 70 73 71 68 72 77 76 77 80 81 80 77 77 78 78 75 76 70 63 59 56 49 45 42 42 43 44 44 42 40 39 38 39 37
22 32 10 11 7 8 8 17 19 13 33 54 69 77 83 84 76 72 76 76 77 81 81 80 81 84 80 77 77 77 73 74 70 70 70 67 57 52 47 42 41 43 45 43 41 40 40 40 40
26 15 16 15 4 14 6 17 19 9 19 19 51 63 83 81 83 73 72 82 79 80 79 80 80 83 82 81 81 83 82 79 74 70 66 63 60 57 52 48 45 44 44 44 41 40 40 43 40
20 18 24 19 9 6 19 8 13 9 18 28 22 59 80 79 81 78 73 76 79 79 79 81 82 83 82 83 81 82 80 76 72 68 63 63 61 59 55 52 49 46 45 43 42 41 40 40 42
9 6 6 6 8 7 22 20 28 21 18 15 15 53 72 79 75 82 84 78 80 81 79 78 79 82 83 84 84 82 80 77 74 74 66 62 60 58 55 54 51 46 45 44 42 40 41 40 43
13 14 5 2 4 20 8 18 37 10 10 15 20 51 57 65 72 78 82 88 89 88 83 79 82 87 85 82 84 81 79 76 70 70 64 60 56 54 53 53 49 45 42 40 39 41 41 41 43
36 20 9 15 10 7 8 16 13 20 27 52 61 64 58 46 48 50 64 79 89 91 88 84 86 82 78 77 82 80 74 71 69 65 61 57 54 47 43 40 42 42 40 39 40 41 40 40 42
11 26 26 5 4 3 11 13 16 19 20 19 37 44 57 65 47 41 41 56 70 79 85 83 81 80 76 73 75 74 72 72 67 60 55 54 49 47 46 43 41 40 40 40 40 40 38 40 40
20 17 11 9 10 11 10 8 15 4 19 22 18 23 39 39 43 44 38 43 52 62 72 76 76 75 69 70 71 71 69 64 60 55 54 52 47 47 49 47 45 43 41 41 41 40 39 41 42
11 13 12 10 9 11 9 14 15 24 12 13 18 29 33 33 31 27 23 27 43 49 60 66 66 69 69 66 66 67 66 63 58 53 49 48 47 48 48 46 48 46 44 43 44 43 42 44 43
26 21 25 16 30 13 2 17 9 14 12 11 20 28 16 25 27 25 23 22 25 41 51 56 61 64 64 63 63 63 61 60 57 55 50 48 48 48 47 46 47 47 46 45 46 44 43 44 44
Wind_Direction_850mb
282 310 313 345 59 80 215 260 260 302 279 296 144 148 182 123 165 200 158 163 162 162 166 165 166 179 182 165 133 135 154 130 143 135 121 119 117 111 110 106 105 109 119 100 100 94 102 106 103
301 313 338 73 106 148 254 242 248 247 306 119 112 112 103 160 157 157 153 163 166 166 166 167 171 181 186 173 136 156 146 146 144 134 130 123 120 115 112 108 105 105 103 105 108 105 95 100 100
299 322 355 92 133 182 225 214 240 280 192 163 142 147 163 189 178 165 164 165 168 169 169 168 174 179 179 173 138 138 153 146 145 145 129 126 124 123 120 117 112 115 111 112 117 106 105 100 103
318 338 61 101 234 254 209 231 240 139 206 222 187 153 186 177 171 173 168 168 170 173 174 177 183 189 182 159 167 163 152 149 150 154 140 133 127 125 118 119 119 116 122 112 117 108 103 110 100
331 66 54 233 254 263 251 255 218 208 236 182 177 206 215 203 180 177 176 173 173 176 179 182 188 195 202 192 197 182 152 163 161 155 140 141 139 135 128 125 125 124 122 116 117 103 104 109 106
50 79 77 239 243 269 281 270 234 217 239 202 181 156 204 196 178 177 177 178 177 180 182 185 188 196 191 196 207 205 170 171 161 163 148 151 142 138 138 133 129 124 119 113 112 105 97 97 98
132 93 224 231 255 289 261 266 213 214 202 239 232 155 221 200 179 184 180 181 180 185 186 180 187 191 193 200 216 216 201 173 168 167 157 158 158 154 148 137 128 122 114 107 102 94 91 89 89
179 110 213 235 198 266 247 247 265 205 219 220 195 205 231 208 180 173 179 182 185 188 190 184 190 196 198 201 208 222 215 180 170 172 171 166 164 162 154 143 134 127 118 112 104 95 89 84 84
175 96 227 225 172 240 270 260 264 235 191 191 198 221 229 199 185 179 184 188 189 190 192 189 192 195 201 205 208 211 215 195 181 182 183 175 169 164 157 153 148 143 135 126 116 102 94 91 85
166 172 223 206 201 221 281 282 308 242 218 226 222 219 227 197 194 192 193 192 190 189 191 193 197 199 202 204 204 207 211 202 188 188 189 177 172 176 177 170 165 161 156 151 136 121 112 100 91
186 228 181 229 229 226 251 306 283 222 249 238 231 218 213 199 198 203 204 202 194 192 190 201 205 203 202 204 208 221 214 216 193 201 190 181 181 182 184 182 179 181 182 177 171 176 153 127 109
208 243 202 242 246 257 249 283 268 233 250 274 253 238 218 206 208 212 212 208 201 197 196 197 201 206 206 208 222 220 217 214 212 213 200 191 190 190 192 194 194 197 201 207 215 229 239 254 264
224 246 222 244 249 250 258 263 255 258 270 262 254 227 225 221 219 218 218 215 209 204 203 201 207 210 210 212 225 224 214 216 212 216 211 203 200 200 202 205 208 212 217 224 234 245 253 260 269
226 251 257 260 260 255 236 261 243 259 273 261 243 237 227 230 224 220 219 219 212 210 210 209 207 211 212 215 224 225 221 221 223 223 221 213 209 208 211 215 218 222 228 236 246 252 258 264 271
274 297 297 225 255 239 230 260 227 258 260 263 246 237 232 231 226 229 229 223 218 215 214 213 215 211 214 217 223 229 233 233 233 232 229 219 217 221 219 221 226 229 235 244 253 260 265 270 276
280 130 271 231 189 237 179 254 243 249 252 257 259 247 239 232 235 231 232 230 224 221 218 217 218 220 214 217 221 232 236 237 238 235 236 230 223 225 227 231 233 234 240 248 256 262 267 272 278
345 242 210 290 207 182 194 266 259 242 230 248 254 250 242 238 236 236 233 233 230 225 221 220 220 220 218 219 222 230 237 238 238 238 239 237 228 231 236 237 236 239 245 252 258 264 271 276 281
211 220 237 205 240 222 229 264 272 266 230 242 251 254 247 242 245 240 235 231 232 229 227 225 224 222 220 222 226 230 233 237 238 238 239 236 236 235 239 240 240 243 248 253 261 268 273 278 284
190 220 219 238 259 218 239 250 260 247 235 256 252 251 249 248 250 245 240 235 231 231 228 225 224 225 221 222 224 225 225 229 232 235 235 232 234 238 241 243 245 247 251 256 260 266 273 281 289
234 230 249 275 258 190 273 261 260 234 230 239 245 249 252 253 252 246 242 235 232 232 230 226 227 228 226 227 226 229 227 229 231 233 233 231 235 238 245 246 249 251 254 256 261 267 273 280 286
232 234 213 225 326 264 311 275 256 246 237 247 246 248 252 251 256 251 240 237 232 231 232 230 229 228 228 228 227 229 232 235 232 231 228 230 233 238 244 248 250 251 255 258 261 264 271 277 281
243 189 221 226 209 251 127 279 252 247 250 228 243 235 244 246 250 252 245 237 233 234 234 232 231 229 227 227 226 227 229 230 231 234 231 231 234 239 244 249 251 251 254 256 260 261 266 272 277
241 180 198 209 206 358 247 280 264 211 243 246 239 236 243 244 243 244 246 239 237 237 236 232 230 230 227 227 227 228 230 234 238 239 237 237 239 242 245 247 250 250 252 257 258 260 265 270 273
173 104 89 92 120 247 234 199 255 236 225 251 245 248 247 242 241 245 246 244 241 239 238 236 232 231 227 226 226 229 230 232 233 237 237 239 241 243 243 244 248 251 250 252 257 261 263 267 271
164 158 183 177 185 237 184 187 244 252 252 230 244 255 254 249 247 248 247 243 241 240 238 234 230 228 227 225 227 230 231 234 235 238 240 241 241 241 242 244 247 251 252 254 255 258 262 266 269
194 189 178 193 202 235 118 225 249 230 251 248 247 253 259 260 251 252 252 248 244 240 236 233 231 228 227 225 227 229 231 234 235 237 239 241 240 239 241 245 246 246 247 247 250 254 259 264 268
206 208 218 76 20 122 217 280 293 250 266 259 249 250 256 257 252 258 266 248 243 238 232 232 231 229 226 224 226 228 231 233 233 234 237 239 238 235 237 241 243 243 244 245 250 254 259 265 267
180 156 182 210 180 224 252 243 232 303 258 268 275 242 258 257 249 255 257 245 239 238 232 229 230 230 229 224 225 227 229 232 234 233 233 235 234 233 235 238 241 243 246 247 251 257 261 266 269
183 185 211 178 166 212 258 254 215 224 246 279 278 281 259 247 240 238 244 242 230 229 229 228 229 230 228 227 226 226 226 228 231 231 231 231 230 231 235 236 239 242 245 248 252 257 263 268 270
220 198 198 206 223 235 198 251 205 227 249 263 275 283 272 235 230 227 230 230 226 225 226 227 227 227 228 227 225 224 223 225 227 228 227 227 228 229 232 235 239 242 245 249 254 259 263 265 267